Zurück zum Katalog

STARLINK-33987

AktivKommunikationVLEO
NORAD 63873·PAYLOAD·🇺🇸 United States

Gestartet May 10, 2025 von Vandenberg Space Force Base

Loading…

Nächste Überflüge (nächste 24 Stunden)

TLE

AktuellSource: CelesTrak SupGP

Epoche: Sep 14, 2026, 21:30 UTC

1 63873C 25094K   26257.89631944 -.00005124  00000+0 -17380-3 0  2575
2 63873  69.9994 115.7867 0002853 266.0112 146.9147 15.30399347    13

Verfolge STARLINK-33987 in Echtzeit mit AllMySat

Download on the App Store